Regional Weather Roundup
Issued by NWS

Home | Current Version | Previous Version | Text Only | Print | Product List | Glossary On
Versions: 1 2 3 4 5 6 7 8 9 10 11 12 13 14 15 16 17 18 19 20 21 22 23 24 25 26 27 28 29 30 31 32 33 34 35 36 37 38 39 40 41 42 43 44 45 46 47 48 49 50
000
ASUS43 KTOP 281208
RWRKS

WEATHER ROUNDUP FOR KANSAS
NATIONAL WEATHER SERVICE GOODLAND KS
700 AM CDT SAT MAR 28 2015

NOTE:  "FAIR" INDICATES FEW OR NO CLOUDS BELOW 12,000 FEET WITH NO
SIGNIFICANT WEATHER AND/OR OBSTRUCTIONS TO VISIBILITY.

KSZ001>006-013>018-027>032-041>047-281300-
NORTHWEST KANSAS

CITY           SKY/WX    TMP DP  RH WIND       PRES   REMARKS
GOODLAND       CLEAR     40  33  76 W6        30.01R
6HR MIN TEMP:  39; 6HR MAX TEMP:  48;

HAYS           CLEAR     36  27  69 CALM      29.96R
HILL CITY      CLEAR     33  29  85 E6        29.98R
6HR MIN TEMP:  33; 6HR MAX TEMP:  44;

RUSSELL        CLEAR     31  29  92 NE7       29.96R
6HR MIN TEMP:  31; 6HR MAX TEMP:  40;

$$

KSZ061>065-074>080-084>089-281300-
SOUTHWEST KANSAS

CITY           SKY/WX    TMP DP  RH WIND       PRES   REMARKS
DODGE CITY     CLEAR     47  34  60 W12       29.99R
6HR MIN TEMP:  44; 6HR MAX TEMP:  50;

ELKHART          N/A     49  31  50 W9          N/A
GARDEN CITY    CLEAR     37  32  82 W5        29.98R
6HR MIN TEMP:  37; 6HR MAX TEMP:  46;

GREAT BEND     CLEAR     32  27  80 CALM      29.96R
LIBERAL        CLEAR     46  30  53 NW8       30.02R
PRATT          CLEAR     43  34  70 N3        29.98R
$$

KSZ066>073-081>083-090>101-281300-
SOUTHEAST KANSAS

CITY           SKY/WX    TMP DP  RH WIND       PRES   REMARKS
CHANUTE        MOCLDY    41  30  65 SE10      30.07R
6HR MIN TEMP:  39; 6HR MAX TEMP:  42;

COFFEYVILLE    LGT RAIN  41  36  82 SE6       30.08R
6HR MIN TEMP:  41; 6HR MAX TEMP:  44; 6HR PCP:  0.01;

HUTCHINSON     CLEAR     35  30  82 S7        29.98S
6HR MIN TEMP:  35; 6HR MAX TEMP:  45;

MEDICINE LODGE   N/A     38  35  89 S9        29.97S
NEWTON         CLEAR     39  28  65 S10       29.99S WCI  32
PARSONS        CLOUDY    42  34  73 SE5       30.08R
6HR MIN TEMP:  41; 6HR MAX TEMP:  43; 6HR PCP: TRACE;

WICHITA INTL   PTCLDY    39  30  70 S9        30.00R
6HR MIN TEMP:  39; 6HR MAX TEMP:  47; 6HR PCP: TRACE;

WICHITA JABRA  CLEAR     40  31  70 S9        29.99S
6HR MIN TEMP:  40; 6HR MAX TEMP:  45; 6HR PCP: TRACE;

WICHITA MCCONL CLEAR     40  31  70 SE8       30.00R
WINFIELD       PTCLDY    42  32  67 SE9       30.03S
6HR MIN TEMP:  42; 6HR MAX TEMP:  47;

$$

KSZ007>012-019>026-033>040-048>060-102>105-281300-
NORTHEAST KANSAS

CITY           SKY/WX    TMP DP  RH WIND       PRES   REMARKS
CONCORDIA      CLEAR     30  23  75 E6        30.02R
6HR MIN TEMP:  30; 6HR MAX TEMP:  40;

EMPORIA        PTCLDY    37  28  70 SE9       30.04R
6HR MIN TEMP:  37; 6HR MAX TEMP:  39;

LAWRENCE       CLOUDY    37  25  61 E12       30.12R WCI  29
6HR MIN TEMP:  37; 6HR MAX TEMP:  39;

MANHATTAN      PTCLDY    37  26  64 E6        30.04R
6HR MIN TEMP:  36; 6HR MAX TEMP:  39;

MARYSVILLE     CLOUDY    36  28  75 SE8       30.07R
OLATHE IND     CLOUDY    37  25  61 E9        30.13R
6HR MIN TEMP:  37; 6HR MAX TEMP:  39;

OLATHE EXE     CLOUDY    37  25  61 E9        30.12R
6HR MIN TEMP:  37; 6HR MAX TEMP:  39;

SALINA         CLEAR     39  30  70 CALM      30.01R
6HR MIN TEMP:  37; 6HR MAX TEMP:  46;

TOPEKA BILLARD CLOUDY    39  26  59 E12       30.11R WCI  32
6HR MIN TEMP:  39; 6HR MAX TEMP:  40;

TOPEKA FORBES  CLOUDY    40  25  55 E12       30.08R WCI  33
6HR MIN TEMP:  39; 6HR MAX TEMP:  40; 6HR PCP: TRACE;

$$


USA.gov is the U.S. government's official web portal to all federal, state and local government web resources and services.